OSCAR 7 (AO-7) (7530 NORAD) Tracking and Keplerian Element Data

This shows tracking and keplerian element data for the satellite.

Feedback or suggestion? Click here.




ElementValue
Catalog7530
NameOSCAR 7 (AO-7)
Epoch Orbit8855
Epoch Day189.90710116
Epoch Year2020
RAAN159.5347
Inclination101.8007
Eccentricity0.0012061
Argument of Perigee326.8373
Mean Anonmoly89.0851
Mean Motion12.53644078
Decay Rate-3.9E-07
L11 07530U 74089B 20189.90710116 -.00000039 00000-0 42151-4 0 9998
L22 07530 101.8007 159.5347 0012061 326.8373 89.0851 12.53644078 88557

Live tracking and technical data element details for OSCAR 7 (AO-7) (NORAD 7530). OSCAR 7 (AO-7) can be tracked NOW for your location showing map with azimuth and elevation plus other details from your city location.

Track the satellite on the map from your city or location and see movement details for azimuth, elevation, latitude, longitude, range, height, and movement on the map or in text.







IsCatalogInMostPopularTable: catalog: 7530, numindb: 1784
Update: records affected: 1



GetName: 7530 OSCAR 7 (AO-7)

Hit Count: updated at: Wed, 08 Jul 2020 23:21:01 GMT